FENGYUN 1C DEB

Satellite information

Favourite Embed

Satellite Type and Status

DEBRISIN ORBIT

Key statistics

Satellite FENGYUN 1C DEB at a glance.

Uptime

9555

Days in orbit

Revolutions

≈ 14.4

Per day

Orbit

SSO

Sun Synchronous Orbit

Inclination

99.3

Latest

Satellite identification and parameters

Extended collection of information and parameters for FENGYUN 1C DEB.

Object identification

Identified? True

Debris? True

Object name: FENGYUN 1C DEB

International designator: 1999-025KD

Object number (NORAD): 29955

Object ID (CCSDS): 29955

Country: PEOPLES REPUBLIC OF CHINA (PRC)

Current information (Y/N): Y

RCS size: SMALL

Orbital parameters

Period: 100.237 minutes

Inclination: 99.2844 deg

SMA: 7147.923 km

Apoapsis: 774.594 km

Periapsis: 764.982 km

RAAN: 255.3608 deg

Eccentricy: 0.0006723

Argument of periapsis: 13.8554 deg

Mean anomaly: 14.9326 deg

Mean motion: 14.36590419 rev/day

Mean motion (dot): 0.00002645 rev/day2

B* drag term: 0.0009162 1/REarth

Two-line elements (TLE)

Creation date: July 6, 2025, 6:05 p.m.

Reference frame: TEME

Reference center: EARTH

Epoch: July 6, 2025, 3:42 a.m. UTC

TLE line 0: 0 FENGYUN 1C DEB

TLE line 1: 1 29955U 99025KD 25187.15464263 .00002645 00000-0 91620-3 0 9997

TLE line 2: 2 29955 99.2844 255.3608 0006723 13.8554 14.9326 14.36590419957694

Live tracking on map

Real-time ground track for satellite FENGYUN 1C DEB.

In-orbit conjunctions

A list of the most updated potential collisions computed for object FENGYUN 1C DEB.

Target Orbit TCA Probability of collision Miss distance Type
SL-8 DEB LEO 2025-01-23 23:11:06 0.0001428569 95.0 (m) DEBRIS
CZ-6A DEB LEO 2024-11-27 13:56:04 0.000882323 530.0 (m) DEBRIS
COSMOS 1867 COOLANT LEO 2024-11-19 12:59:49 0.001016424 19.0 (m) DEBRIS
CZ-4B DEB SSO 2024-09-27 20:47:15 0.0002310428 516.0 (m) DEBRIS

Associated space launch

Chinese polar orbiting meteorological satellite

FENGYUN 1C DEB was lifted into orbit during the mission ‘Long March 4B | Feng Yun 1C’, on board a Long March 4B space rocket.

The launch took place on May 10, 1999, 1:33 a.m. from Launch Complex 7.

For more information about the launch, click the button.

Launch to space Long March 4B | Feng Yun 1C
Long March 4B | Feng Yun 1C

Agency: N/A

Status: Launch Successful

Launch date: May 10, 1999, 1:33 a.m. UTC

Rocket: Long March 4B

Launch pad: Launch Complex 7

Location: Taiyuan Satellite Launch Center, People's Republic of China

...

Latest news about this satellite

There are no fresh news available about this satellite. Check back as we update our databases every day.


Newsletter sign-up

Weekly statistics, charts and insights to help you stay on top of the space industry.